Location: Nicosia
(35.1670°N, 33.3670°E)
Time: 01:15:38
(UTC+03:00)

BlueWalker 3 - Visible Passes

Search period start: 31 May 2024 00:00
Search period end: 10 June 2024 00:00
Orbit: 481 x 494 km, 53.2° (Epoch: 30 May)

Date Brightness Start Highest point End Pass type
(mag) Time Alt. Az. Time Alt. Az. Time Alt. Az.
31 May 2.3 04:04:26 28° SSW 04:06:04 53° SE 04:09:43 10° NE visible
01 Jun 2.3 03:40:02 43° SSE 03:40:40 48° SE 03:44:16 10° ENE visible
02 Jun 2.6 03:15:33 43° ESE 03:15:33 43° ESE 03:18:49 10° ENE visible
02 Jun 3.8 04:50:41 10° W 04:53:33 21° NNW 04:56:26 10° NNE visible
03 Jun 3.4 02:51:00 30° E 02:51:00 30° E 02:53:20 10° ENE visible
03 Jun 3.7 04:25:21 11° W 04:28:05 22° NW 04:31:03 10° NNE visible
04 Jun 4.1 02:26:22 21° ENE 02:26:22 21° ENE 02:27:50 10° ENE visible
04 Jun 3.6 04:00:44 16° WNW 04:02:36 23° NW 04:05:40 10° NNE visible
05 Jun 4.7 02:01:41 14° ENE 02:01:41 14° ENE 02:02:20 10° ENE visible
05 Jun 3.5 03:36:02 21° WNW 03:37:07 24° NW 03:40:14 10° NNE visible
06 Jun 3.5 03:11:16 25° NW 03:11:37 26° NW 03:14:48 10° NNE visible
07 Jun 3.6 02:46:27 27° NNW 02:46:27 27° NNW 02:49:22 10° NNE visible
08 Jun 3.9 02:21:34 26° N 02:21:34 26° N 02:23:54 10° NNE visible
09 Jun 4.2 01:56:36 22° N 01:56:36 22° N 01:58:26 10° NNE visible
